Theta_e
312 311 311 310 310 309 309 309 308 308 307 306 306 305 304 303 302 301 300 299 299 298 297 296 295 295 294 294 293 293 293 293 293 293 293 293 293 293 293 293 293 293 290 289 289 288 288 287 286 286 286 286 285 285 285 285 284 284 284 284 284 284 285 285 285 286 289 289 287 287 286 286 286 285 285 285 285 285 285 285 286 286 286 286 286
312 312 312 311 311 310 309 309 308 307 307 306 306 305 304 303 302 300 300 299 299 297 296 296 295 295 294 294 293 293 292 293 293 293 293 293 293 293 293 293 293 292 290 289 288 288 287 287 286 286 286 286 286 285 285 285 284 284 284 284 284 284 284 285 285 285 287 288 287 287 286 286 286 286 285 284 285 285 284 285 286 286 286 284 285
312 312 312 311 311 310 310 309 309 308 307 306 306 305 304 303 302 300 300 299 298 297 296 295 295 294 294 294 293 292 292 292 292 293 293 293 293 293 293 293 292 291 290 289 288 288 287 287 286 286 286 286 286 285 285 285 284 284 284 284 284 284 284 284 284 284 286 287 287 286 286 285 285 286 285 284 284 283 283 284 285 285 284 283 283
312 311 312 311 311 311 310 309 309 308 308 307 307 306 304 303 302 301 300 298 297 296 295 294 294 294 294 293 293 292 292 292 292 292 292 292 292 292 292 292 292 291 289 288 288 288 287 287 286 286 286 286 286 285 285 284 284 284 284 284 284 284 284 284 284 284 284 285 286 286 286 285 285 284 284 284 283 282 282 283 283 282 282 281 281
311 311 311 311 311 311 310 310 309 309 309 308 307 306 305 304 302 301 300 298 297 295 294 294 294 294 294 293 293 292 292 292 292 292 292 292 292 292 292 291 291 290 289 288 288 287 287 286 286 286 286 286 285 285 284 284 284 284 284 283 283 283 284 283 284 284 284 284 285 285 285 285 284 283 283 282 281 281 281 281 280 280 280 280 279
310 310 310 310 310 310 310 310 310 310 309 309 308 307 306 304 303 301 300 298 297 295 294 294 293 293 293 293 292 292 291 291 292 292 292 292 292 292 291 291 290 289 288 288 288 287 287 286 286 286 286 286 285 285 284 284 284 283 283 283 283 283 283 283 283 283 283 284 284 285 285 284 282 283 283 280 278 278 279 279 278 277 277 278 278
310 310 310 309 310 310 310 310 310 310 309 309 308 307 306 304 303 301 299 298 297 295 294 294 293 293 293 292 292 291 291 291 291 291 291 291 291 291 291 290 289 289 288 288 287 287 286 286 286 286 285 285 285 284 284 283 283 283 283 283 283 283 283 283 283 283 282 282 282 282 282 282 280 281 280 278 276 276 277 278 278 277 277 277 277
311 310 310 310 310 310 310 310 310 309 308 307 306 306 305 304 302 300 299 298 296 295 294 294 293 292 292 292 291 291 291 291 291 291 291 291 291 291 290 290 289 288 288 287 287 286 286 286 285 285 285 285 284 284 283 283 283 283 283 283 283 282 282 282 282 281 280 279 279 279 279 278 278 278 277 276 276 276 276 277 277 277 277 277 277
312 311 310 310 310 310 310 309 309 308 307 306 305 305 305 304 302 300 298 297 296 295 294 293 293 292 291 291 291 291 290 290 290 291 291 291 291 290 290 289 288 288 287 287 286 286 286 285 285 285 285 284 284 283 283 283 283 283 283 283 282 282 281 281 280 278 277 277 277 276 276 276 276 276 276 276 276 277 277 277 277 278 278 278 278
312 311 310 310 311 310 310 309 308 308 306 306 305 304 304 303 301 300 298 297 295 294 294 293 292 292 291 291 290 290 290 290 290 290 290 290 290 290 289 288 288 287 287 286 286 285 285 285 285 285 284 284 284 284 283 283 283 283 282 282 281 280 279 279 278 277 276 276 276 276 276 276 276 276 276 277 277 277 277 278 278 278 278 278 278
312 311 311 311 311 310 310 309 309 308 307 306 304 303 302 301 300 299 298 296 295 294 293 293 292 291 291 290 290 290 289 289 289 289 290 290 289 289 289 288 287 287 287 286 286 286 286 285 285 285 284 284 284 284 283 282 282 282 281 280 279 278 277 277 276 276 276 276 276 276 277 277 277 277 277 277 277 277 278 278 278 277 277 278 278
312 311 311 311 310 310 309 309 308 308 307 305 304 302 301 300 299 299 297 296 295 294 293 292 291 291 290 290 289 289 289 289 289 289 289 289 289 288 288 287 287 287 287 286 286 286 286 285 285 285 285 285 284 283 282 282 281 281 281 280 278 277 276 276 276 276 276 276 277 277 277 277 277 277 277 277 277 277 277 277 277 277 277 277 277
311 311 311 311 310 310 309 308 308 307 307 305 303 301 300 300 299 298 297 296 294 293 293 292 291 290 290 289 289 289 289 289 289 289 289 289 288 287 287 287 287 286 286 287 286 285 285 285 285 285 285 284 283 283 282 282 281 281 281 280 278 277 276 276 276 276 276 276 276 276 276 276 277 277 277 277 277 277 277 277 277 277 277 277 277
311 311 310 310 309 308 308 307 307 306 306 304 302 301 300 300 299 298 296 295 294 293 292 292 291 290 290 289 289 288 288 288 288 288 288 288 287 286 286 286 286 286 286 286 286 285 285 285 285 284 284 283 282 282 281 281 281 281 280 279 278 277 276 276 276 276 276 276 276 276 276 276 277 277 276 277 277 277 277 277 277 277 277 277 278
310 310 309 309 308 307 307 307 306 305 304 303 302 301 300 299 298 297 296 295 294 293 292 292 291 290 290 289 288 288 287 287 287 287 287 287 286 286 286 286 286 286 286 286 286 286 285 285 284 284 283 282 281 281 281 281 281 280 279 278 277 276 275 275 276 276 276 276 277 277 277 277 277 277 277 277 277 277 277 277 277 277 278 278 278
310 310 309 309 308 307 306 305 305 304 304 302 301 300 299 299 298 296 295 294 293 292 292 291 291 290 289 289 288 287 287 287 287 287 287 286 286 286 286 286 286 287 287 287 287 286 285 284 284 283 282 281 281 281 281 281 279 278 277 276 275 275 275 276 276 276 277 277 277 277 277 276 276 277 277 277 277 277 277 277 277 277 277 278 278
310 309 309 308 307 305 305 304 304 304 303 302 301 300 300 298 297 296 295 293 292 292 291 291 290 290 289 288 287 286 286 287 287 286 286 285 285 286 287 287 287 287 288 288 287 286 284 284 283 282 281 281 281 281 281 280 278 276 276 275 275 275 276 276 276 276 276 276 276 276 276 276 276 276 277 277 277 277 276 276 276 276 276 277 277
308 307 307 306 304 303 303 303 303 303 303 302 301 300 299 298 297 295 294 293 292 292 291 290 290 289 289 288 287 286 286 286 286 286 286 285 286 286 287 288 288 287 288 288 286 285 284 283 282 281 281 281 281 281 280 279 277 276 276 275 275 276 276 276 276 275 275 275 275 275 275 275 275 275 275 275 276 275 274 274 275 274 274 274 275
305 305 304 303 302 302 301 301 301 301 301 300 300 299 298 297 296 294 293 292 292 291 291 290 289 289 288 287 286 286 286 286 286 286 285 285 286 287 287 287 287 287 287 287 285 284 283 282 282 281 281 281 280 280 280 278 277 276 276 275 275 275 275 275 275 275 275 275 275 275 275 275 275 275 275 276 275 274 273 273 273 273 273 274 275
303 303 302 302 301 301 300 300 299 299 299 298 298 297 296 295 295 293 292 292 291 291 290 289 289 288 288 286 286 285 286 286 286 286 285 285 286 287 287 287 287 287 287 285 284 283 283 282 281 281 280 280 280 280 279 278 276 276 275 275 275 275 275 275 274 274 275 275 275 275 275 276 275 275 275 274 273 272 272 272 272 273 273 274 275
302 302 301 301 300 300 299 299 298 298 298 297 296 296 295 294 294 293 292 291 291 290 290 289 288 288 287 286 285 285 285 285 285 286 285 286 286 287 286 286 287 287 285 284 283 283 282 281 281 280 280 280 279 279 279 277 276 275 276 275 275 275 274 274 274 275 275 275 275 275 276 276 275 273 272 272 272 272 272 272 272 272 273 274 274
301 301 301 300 299 298 298 297 297 297 296 296 295 294 294 293 292 292 291 291 290 289 289 288 287 287 286 285 285 285 285 285 285 285 286 285 286 286 286 286 286 285 284 283 283 283 282 281 280 280 280 279 279 279 278 277 276 276 276 275 275 274 274 275 275 275 275 275 275 275 276 275 274 273 272 272 272 271 271 271 272 272 272 272 273
300 300 300 300 299 298 297 296 296 295 295 294 294 293 293 292 291 291 290 290 289 288 288 287 287 286 285 285 284 284 284 285 285 285 285 285 284 285 286 285 284 283 283 283 283 282 281 280 280 279 279 279 279 279 278 277 277 276 276 275 275 275 275 275 275 275 275 275 275 275 275 273 272 272 273 272 272 271 270 271 271 271 271 271 272
299 299 299 299 299 299 298 297 296 295 294 293 292 292 291 291 290 290 289 289 288 287 287 286 286 285 285 285 284 284 284 284 285 285 285 284 284 284 285 284 283 283 283 282 282 281 280 280 279 279 279 279 279 278 277 277 276 275 275 275 275 275 275 275 275 275 275 275 275 274 274 273 272 272 272 272 271 271 271 271 271 271 271 271 272
298 298 298 298 298 298 298 298 297 296 295 294 293 292 291 290 290 289 288 288 287 287 286 286 285 285 284 284 284 284 284 284 284 285 284 284 283 282 282 282 282 282 282 282 281 280 279 279 279 279 279 279 278 277 277 276 275 275 275 275 275 275 275 274 274 274 275 274 274 274 274 274 273 272 272 271 271 271 271 271 271 271 271 272 272
297 297 297 297 297 297 297 296 296 296 295 294 293 292 291 290 289 289 288 287 287 286 286 286 285 284 284 283 283 283 283 284 284 284 284 283 282 280 280 280 280 281 282 281 280 279 279 279 279 279 278 278 277 277 276 275 275 275 275 275 275 274 274 274 274 274 274 274 274 274 274 274 273 272 272 271 271 271 271 271 271 271 271 272 272
296 296 296 296 296 296 296 295 295 294 294 294 294 293 291 289 288 288 288 287 286 286 285 285 285 284 283 283 283 283 283 284 284 284 284 283 281 279 279 279 280 280 281 281 280 279 279 279 278 278 277 277 276 276 275 275 275 275 274 274 274 274 274 274 274 273 273 273 273 274 274 273 272 272 272 271 271 271 271 271 271 271 271 272 272
295 296 296 296 296 295 295 295 295 294 293 293 294 294 293 291 290 290 290 290 289 288 287 286 285 285 284 283 282 282 283 284 284 285 285 283 281 280 280 280 280 281 280 280 279 279 278 278 278 277 277 276 275 275 274 274 274 274 274 274 274 274 274 273 273 273 273 273 274 274 273 273 272 271 271 271 271 271 271 271 271 271 271 272 272
295 295 295 295 295 295 294 294 294 293 293 292 292 292 292 291 291 290 290 290 289 289 289 289 288 286 284 284 283 283 283 284 285 286 285 283 281 281 281 281 281 280 280 279 279 278 278 277 277 277 276 275 274 274 274 274 274 274 274 273 273 273 273 273 273 273 273 273 273 273 272 272 271 271 270 270 270 270 271 271 271 271 271 272 272
294 294 295 295 295 295 294 293 293 292 292 291 290 289 288 288 287 287 287 287 287 287 287 288 288 286 284 284 283 284 284 285 286 285 282 280 279 280 280 280 280 279 279 279 278 278 277 277 276 276 275 274 274 274 274 274 273 273 273 273 273 273 273 273 273 273 273 273 273 272 271 271 270 270 270 270 270 270 271 271 271 271 271 271 272
293 294 294 294 295 294 294 293 292 292 291 291 290 288 287 286 285 284 284 284 284 284 283 284 285 285 284 283 283 283 284 286 285 283 280 278 278 278 279 279 279 279 279 279 278 277 277 276 275 275 274 274 273 273 273 273 273 273 274 274 273 273 272 272 272 272 273 272 272 271 270 270 270 270 270 270 270 270 271 271 271 271 271 271 272
290 292 293 293 293 293 293 293 292 291 290 289 289 288 287 285 284 283 282 282 282 281 281 281 282 282 282 282 282 283 284 284 283 281 279 278 278 278 278 278 279 279 279 278 277 277 276 275 275 274 273 273 273 273 273 273 273 273 273 273 273 272 272 272 272 272 272 271 271 270 269 269 269 270 270 270 270 270 271 271 271 271 271 271 271
287 289 290 291 292 293 293 292 292 291 290 289 288 287 286 285 284 282 281 279 279 279 279 279 279 280 280 281 282 283 284 282 280 279 278 278 278 279 278 278 279 279 278 277 277 276 275 274 274 273 273 273 273 272 272 272 272 273 273 272 272 272 271 271 271 272 272 271 270 269 269 269 269 269 270 270 270 270 270 270 270 270 271 271 271
284 286 288 289 290 291 291 292 291 290 289 288 288 287 286 284 283 281 280 278 277 277 277 278 278 278 279 280 280 281 281 280 278 278 277 278 278 278 278 278 278 277 276 276 276 275 275 274 273 273 273 273 272 272 272 272 272 272 272 272 272 271 271 271 271 271 271 270 269 269 269 269 269 269 270 270 270 270 270 270 270 270 270 270 271
283 284 286 287 288 289 290 290 290 289 288 287 286 285 284 282 281 280 279 278 277 277 277 277 277 278 278 279 279 278 278 278 277 277 277 278 278 278 278 278 278 276 276 275 275 274 274 273 273 273 273 272 272 272 272 272 272 272 272 272 272 271 270 270 271 271 271 270 269 269 269 269 269 269 269 270 270 270 270 270 270 270 270 270 270
282 283 284 285 287 287 288 288 288 288 287 285 284 283 281 280 279 278 278 278 277 277 277 276 276 277 277 277 277 277 277 277 277 277 277 277 278 279 279 278 277 276 275 275 274 274 273 273 273 273 272 272 272 272 272 272 272 272 272 272 271 270 270 270 270 270 270 270 270 269 268 268 269 269 269 269 269 269 269 269 270 270 270 270 270
282 283 283 284 285 286 286 287 286 286 285 283 282 281 280 279 278 277 277 277 277 277 277 276 276 276 276 276 277 277 277 276 276 275 276 277 278 278 277 277 276 276 275 275 274 273 273 272 272 272 272 272 272 272 272 272 272 272 272 271 271 270 269 269 269 270 270 270 270 269 268 268 268 269 269 269 269 269 269 269 269 269 270 270 270
282 283 282 283 284 284 285 285 284 284 283 281 280 279 278 277 277 276 276 277 277 277 277 276 276 276 276 276 276 276 276 275 275 275 276 277 277 276 276 276 276 275 275 274 273 273 273 273 272 272 272 272 272 272 272 272 272 272 271 271 270 270 269 269 269 270 270 270 269 268 268 268 268 269 269 269 269 269 269 269 269 269 269 269 269
280 281 281 282 282 282 283 283 282 282 281 279 278 278 277 276 276 276 276 277 277 277 276 276 275 276 276 276 276 276 276 276 277 277 277 277 276 276 276 276 275 275 274 274 273 273 273 273 272 272 272 271 271 272 272 272 272 271 271 271 270 270 270 269 269 270 270 270 269 268 268 268 268 269 269 269 269 269 269 269 269 269 269 269 269
277 278 280 281 281 281 281 281 280 280 279 278 277 276 276 276 275 276 276 276 276 276 276 275 275 275 275 276 277 277 278 278 278 278 278 277 276 275 275 275 275 274 274 273 273 273 273 272 272 272 272 271 271 272 272 272 271 271 271 270 270 270 269 269 269 269 269 269 269 268 268 268 268 268 268 269 269 269 269 269 269 269 269 269 269
276 276 278 279 279 280 279 279 278 278 277 277 276 275 275 275 275 276 276 276 276 275 275 275 275 276 276 277 279 279 279 279 278 277 277 276 276 275 275 275 274 274 273 273 273 273 272 272 272 271 271 271 271 271 271 271 271 271 270 270 270 270 269 269 269 269 269 269 269 268 268 268 268 268 268 268 269 269 269 269 269 269 269 269 269
275 276 277 278 278 278 278 277 277 276 275 275 275 275 275 275 275 275 276 275 275 275 275 275 276 276 276 277 277 277 277 277 277 277 276 275 275 275 275 274 274 273 273 273 273 273 272 272 272 271 271 271 271 271 271 271 270 270 270 270 270 270 269 269 269 269 269 269 268 268 268 268 268 268 268 268 268 269 269 269 269 269 269 269 269
276 275 276 277 277 277 276 276 275 275 274 274 274 274 274 274 274 275 275 275 275 275 276 277 277 276 274 275 276 276 276 276 276 275 275 275 275 274 274 274 273 273 273 273 273 272 272 272 271 271 271 271 271 271 271 270 270 270 270 270 270 270 269 269 269 269 269 268 268 268 268 268 268 268 268 268 268 268 268 268 269 269 269 269 269
274 275 275 276 276 275 275 275 274 274 273 273 273 273 273 274 274 274 275 275 275 276 277 277 276 274 274 275 275 275 274 274 275 275 274 274 274 274 274 273 273 273 273 273 272 272 272 271 271 271 271 271 271 270 270 270 270 270 270 270 270 270 269 269 269 269 269 268 268 268 268 268 268 268 268 268 268 268 268 268 269 269 269 269 269
273 274 274 274 274 274 274 273 273 273 273 272 272 273 273 273 274 274 274 275 276 277 276 275 274 274 275 275 275 274 274 274 274 274 274 274 274 274 273 273 273 273 272 272 272 272 271 271 271 271 271 270 270 270 270 270 270 270 270 269 270 270 269 269 269 269 268 268 268 268 268 268 268 268 268 268 268 268 268 268 268 269 269 269 269
272 273 273 273 273 272 272 272 272 272 272 272 272 272 272 272 273 273 274 275 276 276 275 274 274 275 275 275 273 273 274 274 274 273 273 273 273 273 273 273 272 272 272 272 272 272 271 271 271 271 270 270 270 270 270 270 270 270 270 270 269 269 269 269 269 269 268 268 268 268 268 268 268 268 268 268 268 268 268 268 269 269 269 269 269
271 272 272 272 272 271 271 271 271 271 271 271 271 272 272 272 272 273 274 275 275 274 274 274 275 275 274 274 273 274 274 274 273 273 273 273 273 273 273 272 272 272 272 272 271 271 271 271 271 270 270 270 270 270 271 271 270 270 270 270 270 270 269 269 269 269 268 268 268 269 268 268 268 268 268 268 268 268 268 268 268 269 269 269 269
270 270 270 270 271 270 270 270 270 270 270 271 271 271 271 272 272 273 273 273 273 273 274 274 274 274 274 273 273 274 273 273 273 273 273 272 272 272 272 272 272 272 272 271 271 271 271 271 270 270 270 270 270 270 271 271 271 271 270 270 270 270 270 269 270 269 269 268 268 269 268 268 268 268 268 268 268 268 268 268 268 269 269 269 269
270 270 270 270 270 270 270 270 270 270 270 270 270 271 271 272 272 272 272 272 273 274 275 274 274 273 273 273 273 273 273 272 272 272 272 272 272 272 272 272 271 271 271 271 271 271 270 270 270 269 269 270 270 270 271 271 271 271 271 270 270 270 270 270 270 270 269 268 268 269 268 268 268 268 268 268 268 268 268 268 268 268 268 268 268
269 269 269 269 269 269 269 269 269 269 269 270 270 271 271 271 272 272 273 274 275 275 274 273 273 272 273 273 273 272 272 272 272 272 272 272 272 271 271 271 271 271 271 271 271 270 270 270 269 269 269 269 269 270 270 270 270 270 270 270 270 270 270 270 270 269 268 268 268 268 268 268 268 268 268 268 268 268 268 268 268 268 268 268 268
268 268 268 268 268 268 268 268 269 269 269 270 270 271 271 272 272 273 274 275 275 274 273 272 272 272 272 272 272 272 271 271 271 271 271 271 271 271 271 271 271 271 271 270 270 270 270 269 269 269 269 269 269 269 270 270 270 270 270 270 270 270 270 270 270 269 268 268 268 268 268 268 268 268 268 268 268 268 268 268 268 269 268 268 268
Wind_Speed
44 45 46 47 48 48 48 47 48 48 48 48 48 48 47 47 47 46 46 45 45 45 44 43 43 44 45 46 45 43 42 39 36 33 30 27 24 22 21 21 22 23 23 23 21 20 20 20 20 20 19 18 17 17 18 18 20 21 22 25 26 26 28 31 37 47 50 48 49 51 51 51 52 51 50 51 50 48 48 48 48 50 51 52 52
45 47 48 49 50 50 50 50 51 51 51 51 51 50 49 49 49 49 48 47 46 46 45 43 43 43 45 46 46 45 43 40 37 34 31 28 25 23 22 22 23 24 23 22 21 20 20 19 19 19 18 17 17 18 19 19 21 23 23 25 27 27 28 31 35 42 50 51 49 51 52 51 52 52 49 49 48 47 47 48 49 51 52 52 52
44 48 50 51 52 52 52 53 53 53 53 53 53 52 51 51 52 51 50 49 48 48 46 45 44 44 44 46 46 46 44 41 38 35 32 29 26 24 23 23 23 24 23 21 21 20 20 19 19 18 17 17 18 18 20 21 22 24 25 26 28 29 29 31 34 39 47 51 50 50 52 52 52 51 48 46 45 46 49 50 50 51 52 52 51
44 48 51 52 53 54 55 55 56 56 56 55 54 54 53 53 53 52 51 51 50 49 48 46 45 44 45 46 47 47 45 42 39 36 32 29 27 25 24 24 24 24 22 21 20 20 20 19 18 17 17 17 18 20 21 23 24 25 27 27 28 30 30 31 33 36 42 49 50 49 51 52 51 48 45 45 45 46 50 52 52 53 53 52 50
47 49 50 52 54 55 56 57 57 57 56 56 56 55 54 54 54 53 52 52 51 50 49 47 46 45 45 47 48 48 46 44 40 37 34 30 28 27 26 25 25 23 22 21 20 20 19 18 18 17 17 18 19 20 22 23 25 26 27 28 28 29 31 31 33 35 39 46 50 49 48 48 48 45 43 44 47 49 51 52 52 52 53 53 49
48 50 52 52 53 55 57 58 59 59 59 58 57 56 56 55 55 55 54 53 52 51 49 48 47 46 45 47 48 48 47 45 42 38 35 32 30 28 27 26 25 23 22 21 20 19 18 18 17 17 17 18 19 21 22 24 25 26 27 28 29 30 31 32 34 36 39 43 46 48 47 45 46 46 42 43 46 49 53 57 53 47 47 52 52
47 50 52 52 52 53 55 56 56 59 61 60 58 57 57 56 56 56 54 53 52 51 50 49 47 45 45 46 47 48 48 46 43 39 36 33 31 29 28 27 25 23 21 20 19 19 18 17 17 17 17 18 20 21 23 24 25 27 27 28 29 30 32 33 34 36 37 40 42 44 45 44 45 47 45 44 46 47 48 54 60 53 44 48 53
49 51 50 50 50 50 50 50 51 54 58 59 59 58 57 57 56 55 54 53 52 51 50 48 46 45 45 45 47 48 48 47 43 40 38 35 32 31 29 27 25 23 21 20 19 18 18 16 16 16 17 18 20 21 22 24 25 26 26 27 29 30 32 33 33 33 35 37 40 42 45 46 47 49 50 48 49 51 46 45 57 61 52 49 51
49 50 49 48 48 47 47 48 49 51 54 56 58 58 57 57 55 54 53 52 51 51 49 47 46 45 45 46 48 49 49 46 43 41 39 36 34 31 29 27 24 22 21 20 18 18 16 15 15 16 17 18 19 20 22 24 25 26 27 27 28 29 30 30 31 32 33 36 39 41 44 48 50 50 53 53 51 55 54 46 49 55 52 52 55
46 46 46 46 46 46 48 49 50 50 52 53 55 57 57 56 54 52 51 50 50 49 48 47 46 45 45 47 49 50 49 46 44 42 40 36 34 31 29 27 24 23 21 19 18 17 15 15 16 16 17 18 19 21 22 24 25 26 27 27 27 27 28 28 29 30 33 36 40 42 44 49 51 50 54 56 53 51 50 45 45 48 47 50 57
45 45 46 46 47 49 51 51 50 50 50 52 54 56 56 54 52 50 49 49 49 49 48 47 46 46 47 48 49 50 49 47 45 42 40 37 35 32 29 27 25 23 21 19 17 16 16 16 16 16 17 18 20 21 22 22 23 23 24 23 24 24 25 27 29 31 34 38 40 41 42 47 50 49 49 52 51 48 45 42 43 47 47 47 52
47 47 48 49 51 53 53 53 52 51 50 51 53 53 53 52 50 49 48 48 48 48 48 48 47 47 47 48 49 50 49 47 45 43 41 38 35 32 29 27 24 22 21 19 17 16 16 16 16 16 17 19 20 21 21 22 22 23 23 22 21 21 22 25 28 31 34 38 40 41 42 45 47 47 45 46 47 48 47 47 45 45 47 48 50
48 49 49 51 54 54 54 53 53 52 50 50 50 50 50 49 48 47 47 47 47 48 48 47 47 47 47 47 49 50 49 47 45 43 40 37 34 31 28 26 24 22 21 19 17 17 16 16 16 17 18 19 20 20 21 22 23 24 24 23 23 22 22 23 26 29 32 36 40 43 42 42 45 48 47 46 47 49 52 54 53 50 52 54 56
45 48 49 51 53 52 52 53 53 51 50 48 48 48 47 47 46 46 46 46 47 47 47 47 46 46 47 47 48 49 48 46 43 41 38 35 32 30 27 25 23 22 20 19 18 17 16 16 17 18 19 19 19 20 21 23 24 25 25 25 25 24 24 25 26 27 29 32 38 42 41 41 45 49 49 47 47 50 53 57 58 57 58 60 61
40 42 44 47 48 49 50 51 51 50 48 47 46 45 45 45 45 45 45 45 46 46 46 46 45 45 46 46 47 48 46 44 42 40 37 34 32 30 27 25 23 21 20 19 18 17 16 16 18 19 19 19 19 20 22 23 24 25 25 25 26 26 27 28 28 29 30 31 35 40 42 42 44 46 48 48 48 49 51 55 57 58 60 62 63
34 36 38 41 43 45 47 47 48 47 46 45 45 44 44 44 44 44 44 44 44 44 44 44 44 44 45 46 47 47 45 43 41 39 36 34 33 31 28 25 22 21 21 20 18 17 17 18 19 20 19 19 19 20 21 22 22 22 23 24 26 27 28 28 28 28 29 31 35 38 41 42 42 42 43 44 45 46 48 52 55 54 54 57 58
27 30 34 36 39 41 43 44 44 44 44 44 43 43 42 42 43 43 43 43 44 44 44 44 43 43 44 45 47 47 45 43 41 38 35 34 34 32 27 24 23 21 21 20 19 18 18 19 20 20 19 19 19 20 20 19 19 21 24 25 25 27 28 29 29 29 30 33 35 37 38 39 38 39 40 41 43 45 46 52 54 53 53 54 55
22 26 29 32 35 37 39 41 41 42 43 42 41 41 41 41 42 41 41 42 42 42 42 42 42 42 43 44 46 46 44 43 40 37 35 35 34 31 26 24 23 22 21 20 19 19 19 20 19 19 19 19 19 19 18 17 19 21 22 24 26 29 31 32 32 32 32 33 35 36 37 38 39 42 43 44 44 42 44 49 51 50 52 54 55
20 22 24 27 31 34 36 38 40 41 41 40 39 40 40 40 40 40 40 40 39 40 41 41 42 42 43 44 45 45 44 42 40 37 35 35 34 29 26 24 23 22 22 20 19 19 20 20 19 18 18 18 18 18 17 17 19 19 20 24 29 32 32 30 30 31 31 33 35 38 40 41 43 44 44 42 40 37 37 40 41 43 46 49 51
21 20 20 23 26 29 32 35 37 39 39 39 39 39 39 39 38 38 38 38 38 39 40 41 42 42 42 44 46 45 44 42 39 37 35 35 33 29 26 25 24 22 22 20 20 20 21 19 17 16 17 18 17 17 18 16 16 18 21 26 30 30 28 26 28 29 31 34 37 39 41 41 41 40 39 39 38 36 34 34 35 37 40 44 48
22 21 21 21 22 26 29 31 34 35 36 37 37 38 37 37 37 37 38 38 39 40 40 41 42 42 43 45 46 45 43 41 39 37 35 34 32 30 27 25 23 22 22 20 20 21 20 18 16 15 16 16 16 17 16 14 14 18 22 25 26 25 23 25 28 30 32 35 37 37 38 38 38 37 37 38 37 35 34 32 33 35 36 40 45
21 22 22 21 21 23 26 29 31 32 34 35 36 36 37 37 37 37 38 39 39 40 41 42 43 44 44 45 46 45 43 41 39 38 36 35 33 31 27 25 23 22 21 21 22 21 18 15 15 15 15 15 16 15 13 13 15 18 20 20 21 22 23 26 29 30 32 34 35 36 36 36 36 36 37 37 36 32 30 30 31 34 36 39 42
24 23 22 22 21 22 24 26 28 30 32 34 35 36 37 37 38 38 38 39 40 42 43 44 45 46 46 47 47 46 44 42 40 38 37 35 33 31 27 24 24 23 22 22 22 20 16 14 14 15 15 15 14 12 11 12 14 15 16 17 19 21 24 26 28 29 31 32 33 34 34 34 35 36 37 37 35 31 30 31 33 35 38 41 42
28 27 25 24 23 22 23 25 27 29 30 32 33 35 37 38 38 38 39 40 42 44 45 46 47 47 48 49 49 48 46 44 41 39 37 35 33 31 27 25 24 24 23 22 21 17 15 14 15 15 15 14 11 9 10 11 12 13 15 16 19 21 23 25 27 28 29 30 31 32 33 32 33 34 35 34 34 33 32 33 35 36 38 41 42
32 30 28 26 26 25 25 26 27 28 29 31 33 35 37 38 39 40 40 42 44 45 46 47 48 49 49 51 52 50 47 44 42 40 38 36 33 31 27 25 24 24 23 22 19 16 15 15 16 15 13 11 9 8 8 10 11 13 14 16 18 20 22 24 25 26 28 29 30 32 33 33 32 32 32 32 33 34 34 35 37 38 38 40 41
33 32 30 29 28 27 27 28 28 29 30 31 33 35 37 39 40 41 42 44 45 46 47 48 49 50 51 52 52 50 48 46 44 42 40 36 33 31 28 26 25 24 24 21 18 17 17 16 14 12 10 9 7 7 7 9 10 12 13 15 16 18 20 22 24 25 27 29 30 31 32 32 32 32 32 33 34 34 35 37 40 41 40 40 43
32 33 32 31 29 29 29 29 30 31 32 32 32 35 37 40 42 43 44 45 47 48 49 50 50 51 53 53 52 51 49 48 45 43 41 37 35 32 30 28 27 26 24 20 18 18 17 15 13 11 9 7 6 6 7 8 9 10 12 13 15 17 19 21 23 24 26 28 29 31 32 31 32 33 34 35 36 36 36 37 41 43 42 41 43
32 33 33 32 32 31 30 30 31 33 34 35 35 36 37 40 43 44 45 46 47 48 50 51 52 53 55 56 55 53 51 50 48 45 41 38 36 35 33 31 29 26 23 20 19 18 16 14 12 10 7 5 6 7 8 8 9 10 11 12 14 17 18 20 22 23 25 27 29 31 31 31 33 34 35 36 38 38 37 38 41 43 43 42 44
34 34 35 34 34 33 33 33 33 34 36 37 38 39 40 41 43 45 45 46 47 47 48 50 52 55 56 58 58 57 55 52 47 42 38 36 36 35 33 30 27 24 22 21 19 18 16 14 10 8 5 5 6 8 8 8 8 9 10 12 14 16 18 20 23 24 26 28 29 30 31 32 34 35 36 38 39 39 39 40 42 44 43 43 45
35 36 36 37 37 35 35 35 35 36 37 38 40 41 42 43 45 46 47 47 48 49 49 49 50 53 55 57 57 55 52 48 42 38 37 37 35 32 29 27 25 24 24 22 19 18 16 12 9 6 6 7 8 8 8 8 8 9 10 12 15 17 19 21 23 25 26 28 29 29 31 33 35 36 37 39 40 41 41 42 43 44 44 44 46
36 38 38 39 39 37 37 37 37 38 39 40 41 42 43 45 46 48 49 49 48 49 50 49 48 50 53 54 53 50 47 43 40 40 39 36 33 31 28 27 26 25 23 21 19 17 14 11 9 8 8 9 9 8 7 7 8 9 11 13 15 17 20 21 23 25 27 27 28 29 31 33 35 37 38 39 40 42 44 45 45 44 44 44 46
39 40 40 40 40 39 39 39 39 40 40 41 42 44 44 46 47 48 49 49 47 47 48 49 48 48 51 52 51 49 46 41 40 39 37 34 33 31 29 28 27 25 22 19 18 16 13 11 10 10 10 10 9 8 7 7 8 10 12 14 16 18 20 22 24 25 26 27 28 30 32 33 35 37 38 39 40 43 46 47 47 46 45 46 46
42 43 42 41 41 41 41 41 41 41 42 43 44 44 45 47 47 46 45 44 42 41 44 46 46 47 49 51 50 47 43 40 38 36 35 34 33 30 28 27 25 23 21 19 17 15 14 12 11 11 12 10 8 7 7 7 9 11 13 15 17 19 21 22 24 26 26 27 28 30 32 34 35 37 38 39 40 44 47 49 50 49 47 47 47
40 41 41 41 43 43 43 43 43 42 43 44 45 45 46 46 46 45 42 39 38 37 39 42 44 46 47 47 44 41 39 38 36 35 35 34 31 30 29 27 24 21 20 19 17 16 14 13 12 13 12 10 9 8 7 8 10 12 13 15 17 19 21 23 25 27 28 28 29 30 33 34 35 37 39 41 43 46 50 51 51 50 49 50 51
36 38 39 40 43 45 45 44 43 42 43 44 45 46 45 44 44 43 41 40 39 38 37 37 40 43 44 42 38 36 35 35 35 36 35 33 32 31 30 26 23 22 21 19 17 15 14 13 13 13 12 10 8 8 8 9 10 12 14 16 18 20 22 24 26 27 28 29 30 31 33 34 36 37 39 41 45 49 52 52 51 51 50 51 52
32 35 38 40 42 44 45 45 44 43 43 43 44 44 43 43 42 41 40 39 39 39 38 35 33 33 35 36 35 33 34 35 35 35 34 33 32 30 27 24 23 23 21 19 17 16 15 14 14 13 11 9 8 7 8 9 11 13 15 17 19 20 22 25 27 28 29 30 30 32 33 35 37 38 40 43 47 49 51 52 52 52 52 51 51
32 33 35 39 41 43 44 45 44 43 42 42 42 42 41 41 41 40 40 40 40 41 41 39 38 36 35 35 35 34 34 34 34 34 33 32 30 26 23 23 23 22 20 19 17 16 15 15 14 12 10 8 7 7 8 10 12 14 16 17 19 20 23 26 27 28 30 31 31 32 34 36 38 39 41 46 50 51 52 53 53 53 53 52 52
32 33 33 36 39 41 43 43 43 42 41 41 40 40 40 40 40 41 42 43 44 44 44 44 45 45 43 41 39 38 37 36 36 36 34 32 29 26 24 24 22 21 19 18 17 16 15 14 13 11 9 8 7 7 9 10 12 15 17 18 19 21 23 25 27 28 30 32 32 34 35 37 39 40 43 47 51 53 53 53 53 55 56 55 53
33 33 33 34 37 40 41 41 41 41 40 40 40 39 39 40 41 43 44 45 46 46 47 47 47 48 48 47 45 43 43 41 40 37 35 32 29 28 26 24 22 21 19 18 17 16 15 14 12 10 9 7 7 8 9 11 13 15 17 19 21 22 23 26 28 29 30 32 33 35 36 38 39 41 44 48 52 53 54 54 55 55 56 57 55
35 34 33 34 37 39 39 39 39 39 39 39 39 39 40 42 43 45 46 47 47 47 48 49 49 50 50 49 47 47 46 43 39 36 34 33 31 29 26 24 22 20 19 17 17 15 14 12 11 9 8 7 8 9 10 12 14 16 18 20 21 23 24 25 27 29 31 32 34 35 37 38 40 42 46 49 51 52 53 55 56 56 56 56 56
35 33 33 34 35 37 37 37 37 37 37 38 38 39 41 43 44 46 47 48 49 48 48 49 50 50 49 48 47 47 44 41 38 36 35 34 31 29 26 24 22 20 19 17 16 15 12 11 10 8 7 7 8 9 11 13 14 16 18 20 22 23 25 26 27 30 31 33 34 36 38 39 40 43 48 51 52 52 54 55 56 56 56 56 56
29 30 32 33 34 35 35 35 35 35 35 36 38 40 42 44 45 47 49 50 50 50 50 50 50 49 49 49 48 44 39 37 37 36 34 32 30 28 26 24 22 20 19 17 15 14 12 10 8 7 7 7 8 10 11 13 15 17 19 21 23 24 26 27 28 30 31 33 35 37 39 40 41 44 48 51 52 53 55 55 56 56 57 57 56
25 27 30 32 33 34 33 33 34 34 35 37 38 40 42 44 46 47 49 50 51 52 52 51 51 50 49 47 44 38 35 35 36 35 33 32 30 28 26 24 22 20 18 17 15 13 11 9 7 7 6 7 8 10 12 14 15 17 20 22 23 25 26 28 29 31 32 34 35 37 39 41 43 46 49 51 51 53 55 56 56 57 57 57 56
24 27 29 31 32 32 32 32 33 34 36 37 39 41 43 45 47 48 50 52 53 52 51 52 51 50 48 45 41 37 35 35 35 34 32 31 29 27 25 23 21 19 18 16 14 12 10 8 6 6 6 7 9 11 13 14 16 18 20 22 24 26 27 28 29 31 32 34 36 39 40 42 44 47 49 50 51 53 55 56 57 58 58 58 57
23 26 28 29 30 30 31 32 33 34 35 37 39 41 44 46 48 50 52 53 53 52 51 51 51 50 48 45 41 37 35 34 33 32 31 30 28 26 24 21 20 18 17 15 12 10 8 6 5 5 6 8 9 11 13 15 16 18 19 21 24 26 27 27 29 30 31 33 35 38 40 43 45 47 47 49 51 53 54 56 57 57 57 58 57
21 24 25 27 28 29 30 31 32 34 36 38 40 42 44 47 49 51 52 53 53 52 51 51 50 48 45 42 39 36 35 34 33 31 30 28 26 24 22 20 19 17 15 13 11 9 6 5 4 5 6 8 10 12 13 15 16 17 19 21 23 25 26 27 29 29 29 32 35 37 40 43 45 45 45 48 50 52 53 55 56 56 57 57 56
19 21 23 25 27 28 29 31 32 34 36 39 41 44 46 47 49 50 51 52 51 50 50 50 48 44 41 39 37 35 34 33 31 30 28 27 24 22 21 19 18 15 13 11 9 7 5 4 4 5 7 9 11 12 14 15 16 17 18 20 22 24 25 27 28 27 28 30 33 36 39 43 43 43 44 47 50 52 53 55 55 56 56 56 56
17 19 21 23 25 27 29 31 33 35 37 40 42 44 46 47 49 50 50 49 48 49 49 48 44 41 38 37 35 33 32 31 30 28 27 25 23 21 19 17 15 13 11 10 8 6 5 4 5 6 8 10 12 13 15 16 16 17 18 20 21 23 25 27 28 27 27 30 33 36 39 41 40 40 43 47 49 51 53 55 55 55 55 55 55
16 18 21 22 24 26 28 30 33 35 38 40 41 43 45 46 47 47 46 45 45 46 45 43 40 37 36 35 33 31 30 30 28 27 26 24 22 20 18 15 14 12 10 9 7 5 4 5 6 8 10 11 13 15 16 17 17 18 19 20 22 23 24 26 28 27 27 29 33 37 39 39 38 38 42 46 48 50 52 53 54 54 54 54 55
16 18 20 22 24 25 28 30 33 35 36 38 40 42 43 43 42 42 42 42 43 42 40 38 36 34 33 33 32 31 30 29 28 26 25 22 20 18 16 14 12 10 9 8 6 5 5 6 8 9 11 12 14 16 17 18 19 19 20 21 22 23 24 27 28 26 26 29 33 37 38 37 36 38 42 45 48 50 52 52 53 53 53 53 54
15 17 19 21 23 25 27 29 31 33 34 36 38 39 39 39 39 40 40 40 40 39 37 35 33 31 30 30 30 29 29 28 27 25 23 21 18 17 15 13 11 10 8 7 6 6 6 7 9 10 12 13 15 17 18 19 19 20 20 21 22 23 25 26 27 25 26 29 34 36 36 35 35 37 42 45 48 50 52 52 52 52 52 52 52
Wind_Direction
239 238 237 236 235 234 232 231 232 233 235 235 237 237 238 240 241 242 243 245 246 246 245 242 240 239 237 233 229 228 228 227 227 229 230 233 235 239 245 251 258 262 264 267 270 274 274 272 272 274 276 282 289 295 298 301 303 303 303 302 302 303 302 301 300 301 304 306 306 306 307 307 307 307 306 305 304 304 303 304 306 307 309 310 311
242 241 239 237 237 235 234 234 235 236 236 236 237 238 239 241 242 243 243 244 246 246 245 243 240 238 237 234 230 229 229 229 229 230 231 233 235 238 243 249 255 260 262 265 269 271 271 268 269 273 277 284 290 294 298 300 300 300 300 299 299 300 300 299 299 299 302 304 306 306 306 306 305 306 307 307 308 309 308 309 309 309 311 313 313
248 245 242 240 238 236 236 237 237 238 238 238 239 239 241 242 243 244 244 245 246 246 245 243 240 238 237 234 231 230 230 230 231 231 232 234 235 238 243 248 253 257 260 264 268 269 269 267 268 272 277 284 290 294 297 298 297 297 298 297 298 299 299 298 297 297 299 301 303 305 305 304 304 305 308 311 313 314 312 313 313 312 313 315 314
251 249 246 243 241 239 240 239 239 239 239 240 241 242 243 244 245 246 246 246 246 245 245 242 240 238 236 234 232 230 230 231 231 232 232 234 235 238 242 247 251 255 258 262 266 267 266 266 267 270 276 283 289 293 293 294 295 295 296 296 297 298 298 297 296 295 295 297 300 302 302 302 303 307 312 314 315 316 315 315 316 314 314 315 315
252 252 249 246 243 242 242 241 240 240 240 242 243 244 245 245 246 247 246 246 245 245 244 241 239 237 235 234 232 231 231 231 232 233 233 234 235 237 241 246 251 254 257 260 263 264 264 264 265 270 277 284 287 289 291 292 293 293 293 295 295 295 296 294 293 291 289 291 296 298 299 301 306 310 315 317 316 316 317 317 317 315 314 316 314
256 254 252 249 247 245 243 243 242 242 242 243 244 246 246 246 247 246 246 246 245 244 243 241 239 238 236 234 233 231 231 231 232 233 234 234 235 237 241 245 249 251 254 257 259 260 261 261 265 270 276 283 286 287 288 289 291 292 293 293 293 294 295 293 291 289 288 290 295 299 302 305 308 310 313 316 314 314 317 317 317 314 311 313 312
260 257 254 252 250 248 247 247 248 248 246 245 245 246 247 247 247 247 246 245 244 243 242 240 239 238 236 235 233 231 230 230 232 232 232 234 235 238 241 244 247 249 251 254 255 256 258 259 265 271 276 282 284 285 288 290 291 292 292 293 293 294 293 292 291 291 293 297 299 302 306 307 309 309 311 313 310 309 314 314 314 315 310 307 309
263 260 256 252 250 250 249 250 252 252 250 247 245 246 247 247 247 247 245 245 244 243 242 240 239 237 235 234 233 231 229 229 231 231 232 234 235 237 240 243 245 246 249 252 252 253 257 260 266 272 276 280 281 284 288 289 290 289 290 292 292 292 292 293 295 298 301 304 304 306 308 307 308 308 309 310 307 307 310 306 306 313 312 306 306
266 261 254 251 250 251 251 250 251 251 250 248 246 245 246 246 246 246 245 244 243 242 241 240 239 236 234 232 231 230 229 229 231 232 233 235 235 237 239 240 243 244 246 248 248 251 255 260 266 270 273 276 279 283 287 287 288 290 291 293 293 295 297 299 302 304 304 303 303 304 305 302 303 305 305 305 304 305 309 307 302 306 309 305 303
262 257 252 252 253 253 251 249 250 250 249 248 246 245 245 244 245 245 245 243 242 240 239 237 237 235 233 232 230 229 228 229 230 231 233 234 235 236 237 238 239 241 242 243 245 249 254 258 263 266 269 274 279 284 288 289 292 294 295 297 298 299 301 301 301 301 299 298 298 299 298 296 299 301 301 303 305 305 307 308 304 303 303 303 302
256 250 250 252 252 251 249 247 248 249 248 247 245 244 243 243 243 243 243 242 240 238 237 236 235 234 233 232 231 229 229 228 229 230 232 233 234 235 235 236 236 237 238 240 243 248 254 259 262 266 270 277 281 284 288 290 292 292 291 292 292 292 292 292 293 293 292 293 293 293 293 293 296 299 298 301 305 304 301 300 299 299 299 298 298
254 248 250 252 249 248 247 246 245 246 247 247 245 243 242 242 242 242 242 241 239 237 235 235 234 233 232 232 231 230 229 228 228 230 232 233 233 233 232 232 233 234 234 238 243 248 254 258 263 270 274 278 280 282 285 286 285 284 284 286 286 283 278 277 280 283 284 286 286 286 286 287 290 292 294 296 299 298 297 295 293 292 293 292 290
256 250 250 252 250 248 247 246 245 245 246 247 245 243 242 241 242 242 241 239 237 235 235 234 233 232 232 231 231 230 229 227 228 229 231 231 231 230 230 230 231 233 235 240 244 248 255 262 269 277 279 279 281 284 285 285 283 283 284 286 287 289 286 277 272 273 275 278 280 281 282 284 287 289 292 294 295 294 293 293 291 289 288 287 286
260 253 253 253 251 249 247 246 245 244 245 245 244 242 241 241 241 241 239 237 236 234 234 233 232 232 232 231 231 229 227 226 227 228 229 230 229 227 227 228 229 232 237 242 246 252 262 272 279 282 282 283 286 287 285 284 283 283 285 288 292 296 294 285 279 279 280 281 283 287 290 291 291 292 292 292 291 290 290 291 291 290 290 288 287
262 258 257 257 253 250 248 245 244 244 243 243 242 241 240 240 240 239 238 236 236 235 234 233 232 232 231 230 230 228 225 224 225 227 227 228 227 225 224 226 229 233 238 245 254 263 272 280 283 284 286 287 288 286 284 284 285 287 291 294 294 291 288 290 295 298 297 294 292 292 294 292 290 290 291 291 292 291 291 292 291 291 291 290 288
263 262 261 260 256 252 248 246 244 243 242 242 241 239 239 239 239 238 236 235 234 233 233 233 232 231 230 229 228 225 223 223 224 225 226 226 226 224 223 226 231 236 242 252 261 269 275 279 282 284 286 287 285 283 283 285 287 289 289 285 284 286 290 296 299 295 290 288 287 285 286 286 286 286 287 289 290 290 290 289 288 287 288 287 287
272 270 267 264 259 253 249 246 245 243 241 240 239 239 239 239 238 237 234 233 231 231 231 231 231 231 230 229 227 223 221 222 223 224 224 224 226 227 226 228 233 238 245 253 260 266 272 276 279 281 282 284 283 281 283 284 283 280 279 281 287 293 295 294 292 287 283 283 285 286 288 289 288 287 286 286 286 286 286 284 282 283 284 284 283
292 284 276 268 260 254 250 247 244 242 241 240 240 239 239 238 238 236 234 233 232 232 232 231 230 230 230 229 226 222 221 221 223 223 222 223 226 227 228 230 234 238 244 251 258 263 268 271 274 277 280 281 281 282 283 281 276 277 284 292 295 291 289 290 292 293 294 294 294 295 295 294 291 288 288 288 288 287 283 280 281 282 280 280 280
307 297 285 273 263 256 252 248 245 243 241 240 240 240 239 238 237 235 233 232 233 233 232 231 230 229 228 227 224 220 220 221 222 223 222 223 225 226 227 230 232 237 244 250 255 260 263 267 271 275 278 279 279 281 280 275 275 282 289 290 286 284 289 296 299 301 302 299 297 297 296 296 294 294 295 297 298 296 289 283 284 283 280 280 280
313 305 293 280 269 261 256 252 248 245 243 242 241 240 239 238 237 235 233 232 232 233 232 230 229 227 226 225 222 219 219 221 222 222 221 223 226 225 225 229 232 237 243 247 252 257 261 265 269 270 270 273 275 274 272 271 277 283 282 279 281 288 298 303 300 300 298 294 294 296 298 298 299 301 305 307 306 302 294 285 280 278 278 279 280
320 314 303 289 275 265 259 255 251 249 247 245 243 241 241 240 238 236 234 232 231 230 229 228 227 226 224 222 220 218 219 220 221 221 220 222 225 225 224 228 233 237 241 245 249 255 259 263 265 264 264 267 268 266 266 270 275 276 277 280 287 295 300 297 293 295 296 295 297 298 299 302 306 308 309 309 307 304 298 288 279 276 275 275 276
318 317 312 302 288 273 263 257 253 251 248 246 244 242 241 240 238 236 234 233 231 229 227 225 224 223 221 220 218 217 217 219 219 219 219 220 223 223 223 226 232 235 238 244 249 253 258 259 258 259 261 262 261 260 265 270 271 275 281 287 291 293 291 292 295 299 300 299 299 300 304 309 312 313 313 313 312 308 299 289 282 279 278 276 274
313 312 311 308 301 288 276 267 260 255 251 248 245 243 241 239 237 234 232 231 229 227 225 224 222 221 219 217 216 216 216 217 217 217 217 218 220 222 222 223 229 233 236 242 248 252 254 253 252 255 255 254 254 258 265 271 274 280 286 288 290 292 294 298 301 301 300 300 302 307 311 313 314 316 319 319 317 310 299 292 289 287 285 284 280
314 310 305 302 299 293 286 278 270 263 258 253 248 244 242 239 236 234 231 229 228 226 225 223 221 219 217 215 214 214 215 216 215 215 216 216 217 220 221 221 226 231 235 241 246 248 247 245 246 248 248 248 253 260 267 273 279 284 287 290 294 298 301 303 303 302 303 307 311 313 315 315 316 320 322 321 320 316 309 303 300 297 294 292 288
313 311 305 299 293 287 283 278 273 269 264 259 254 250 245 241 237 234 231 228 227 226 224 223 221 219 216 214 213 213 213 213 212 213 213 214 214 216 218 219 222 228 234 238 241 241 238 239 241 243 244 249 255 262 270 276 279 282 288 293 298 302 304 305 307 309 311 315 316 316 318 319 321 323 326 326 324 322 319 314 310 307 304 300 296
307 307 304 300 293 285 280 275 270 266 262 259 257 254 250 246 241 236 232 229 227 226 225 223 220 218 216 215 214 213 212 211 211 211 211 211 210 210 213 214 217 224 232 233 233 234 236 236 237 238 240 246 255 264 272 274 275 281 290 296 300 305 308 310 314 317 318 320 320 319 321 323 324 327 331 330 328 327 325 319 315 312 310 305 300
298 299 298 297 292 285 281 276 271 266 260 256 255 253 250 246 242 238 235 231 228 226 224 223 221 218 216 215 213 213 212 211 210 209 209 207 205 204 207 211 214 221 228 229 227 230 232 230 228 230 233 241 256 268 269 268 272 282 292 300 307 312 315 317 321 323 323 323 323 323 325 327 328 331 334 332 330 329 326 320 316 314 312 307 301
290 290 290 290 287 283 278 274 271 267 261 257 255 253 250 246 242 241 241 238 234 230 227 225 223 220 218 215 212 211 211 211 211 210 209 206 204 203 206 211 214 218 222 223 222 224 224 222 222 224 228 242 261 264 259 260 271 284 295 305 311 316 321 325 327 328 327 327 327 328 330 331 332 335 335 332 329 327 325 320 316 314 312 307 300
283 281 281 281 281 279 275 270 267 264 260 256 254 252 249 247 245 244 244 243 241 239 236 232 228 224 220 216 213 211 211 212 212 212 210 207 206 207 209 211 212 213 214 216 216 216 215 216 217 217 222 238 249 248 248 258 276 290 301 308 312 319 328 331 332 332 332 331 332 334 336 336 337 337 334 329 326 324 322 320 317 314 312 306 299
281 277 274 273 273 273 271 268 264 261 258 255 251 248 245 243 241 241 240 238 238 238 238 237 233 227 222 219 218 218 218 217 214 211 208 205 205 206 208 208 206 206 209 209 208 208 209 209 206 208 217 226 229 233 243 260 278 291 302 311 318 327 333 335 335 335 335 335 336 339 341 339 337 335 331 326 324 323 321 319 316 314 310 305 300
276 273 270 269 269 269 268 266 264 260 257 254 250 246 243 240 238 237 236 235 234 232 231 232 232 229 225 221 219 219 220 219 214 208 203 200 200 201 202 201 200 203 207 204 200 202 203 198 196 204 212 214 220 231 247 264 282 296 307 317 326 332 335 337 337 336 336 337 340 343 343 340 336 332 328 324 323 322 320 318 316 313 310 305 301
269 269 269 268 267 267 266 264 262 258 255 251 248 244 241 238 236 234 233 233 232 230 228 227 226 225 222 220 218 218 217 214 210 205 199 196 197 199 199 198 198 198 199 197 195 197 196 191 193 201 207 211 221 236 253 274 294 308 318 326 333 337 338 338 337 336 338 341 343 344 344 339 335 331 328 325 324 321 319 317 316 313 310 306 302
265 264 266 266 264 263 262 260 259 256 254 250 247 244 240 238 234 231 229 228 228 228 227 225 222 220 218 217 217 218 215 209 204 199 194 194 197 196 194 195 194 191 191 191 190 190 190 191 195 202 208 217 230 245 261 284 303 316 326 333 337 340 340 338 336 336 339 343 344 344 342 339 336 333 329 327 324 320 317 316 315 314 311 307 303
266 263 263 263 263 261 259 257 256 255 253 250 247 244 241 237 233 228 222 217 215 217 219 220 219 217 215 214 213 213 209 202 196 192 190 192 193 191 191 192 189 185 186 188 187 187 188 191 198 205 211 222 236 252 271 293 309 321 331 335 337 340 340 338 336 336 339 342 343 343 342 340 337 334 330 327 324 320 318 317 316 314 312 308 305
267 264 261 261 260 259 257 255 254 252 250 246 243 240 237 232 228 222 217 211 206 203 204 206 210 213 213 209 205 202 197 192 188 189 190 191 191 192 195 192 185 182 184 184 184 185 188 194 201 208 216 228 242 259 281 300 315 326 332 334 336 338 337 336 336 338 339 341 342 343 342 339 337 334 330 327 323 321 320 319 317 315 313 310 308
269 264 260 258 257 256 255 253 251 249 247 243 240 236 232 227 223 217 211 206 201 196 191 190 193 200 203 199 192 188 186 184 185 187 188 190 193 197 197 189 182 182 184 182 182 185 191 198 205 211 222 235 249 269 290 308 322 330 333 333 334 334 333 335 337 338 337 338 341 343 342 338 337 336 331 326 324 323 322 320 319 316 314 312 310
271 267 262 258 256 254 253 251 249 247 245 241 236 231 226 222 218 211 203 199 194 189 184 180 177 176 179 180 179 177 177 179 181 182 184 189 194 194 191 186 184 183 183 181 182 186 193 201 208 216 228 241 255 278 300 316 327 331 333 333 332 331 331 333 335 334 334 337 341 343 341 338 338 336 331 326 325 325 324 322 320 318 316 315 312
271 269 266 262 258 254 251 248 246 243 240 236 231 226 220 214 209 203 198 194 190 185 181 178 175 171 169 169 170 171 172 176 180 182 185 189 189 186 183 184 183 182 182 183 184 187 194 203 211 221 234 248 266 289 309 322 329 331 332 331 330 330 330 329 330 332 334 338 341 343 341 339 338 335 330 327 326 326 325 324 322 319 318 317 315
271 271 268 263 257 253 249 245 242 238 234 229 225 219 213 206 201 197 194 190 186 183 179 176 173 170 167 167 170 176 181 184 187 187 186 185 185 184 183 182 181 181 183 184 185 190 198 206 215 228 241 257 280 301 315 325 330 330 329 329 330 331 330 328 329 333 336 338 342 344 342 339 337 333 329 327 328 328 326 324 323 321 319 318 316
268 269 267 260 254 251 248 244 240 235 229 224 218 212 206 201 196 193 190 186 183 181 178 174 171 169 169 173 180 187 191 190 187 185 184 183 183 182 181 180 181 181 182 184 189 196 203 209 220 236 251 269 291 309 319 326 329 328 328 329 331 331 330 328 329 333 336 339 343 345 342 339 336 332 329 328 329 329 327 325 324 322 320 319 318
264 265 264 259 253 248 245 241 236 231 226 220 214 207 202 197 193 190 187 184 180 178 175 172 171 171 176 183 190 194 193 188 183 182 184 183 181 179 178 179 180 180 182 187 193 199 206 215 227 244 262 281 300 313 320 325 326 327 329 331 331 331 330 329 330 334 337 341 345 345 342 339 335 330 328 329 330 330 328 326 325 324 322 321 320
260 259 259 257 250 244 241 236 231 226 220 215 209 204 198 193 190 187 183 180 177 175 173 173 175 176 181 188 191 191 188 183 180 180 180 178 178 177 177 177 178 180 184 191 196 202 210 219 232 250 269 288 306 316 320 323 326 328 330 330 331 332 332 330 331 334 338 343 346 345 341 338 334 329 328 330 331 330 329 328 326 325 324 323 322
254 254 255 253 247 242 238 233 226 219 213 207 202 198 194 189 187 184 180 177 176 176 177 178 178 178 180 185 187 184 181 179 177 176 176 175 175 176 176 177 178 181 186 192 199 207 214 222 234 253 274 294 310 317 320 323 326 328 329 330 330 332 332 331 331 334 340 344 346 344 341 338 333 328 328 330 331 331 330 329 327 326 325 324 324
251 250 248 244 240 235 231 225 219 212 207 202 198 194 191 188 185 183 180 178 178 180 182 181 179 177 179 182 182 178 176 175 174 174 173 173 174 174 175 177 179 183 189 195 201 208 215 224 238 260 287 305 313 318 321 323 325 327 328 329 330 331 332 331 330 334 341 345 344 343 340 336 330 328 329 331 332 331 330 329 329 328 326 326 325
248 244 240 234 229 224 219 214 210 204 199 196 192 190 188 186 184 182 181 180 181 182 182 179 177 179 180 180 177 175 173 172 172 172 172 173 173 174 175 177 181 185 192 197 202 208 215 228 248 277 301 310 314 318 319 320 323 326 327 328 329 331 332 330 329 335 343 345 343 341 337 331 327 327 330 332 333 332 331 330 330 328 327 327 326
241 235 229 223 217 212 207 203 200 196 193 190 187 185 184 183 183 182 182 183 184 184 181 178 180 182 180 176 174 173 171 170 170 171 171 171 172 173 175 180 184 188 193 197 202 210 221 239 266 292 308 313 314 316 317 319 322 324 325 327 328 329 330 329 329 336 344 346 343 338 332 326 326 328 330 332 333 333 332 331 331 330 329 328 327
229 222 217 212 206 201 198 194 191 189 188 186 185 184 182 182 182 183 183 185 185 183 180 181 183 182 177 174 172 171 169 169 170 170 169 170 172 175 179 183 186 189 194 198 205 215 230 255 284 305 314 315 314 316 318 319 320 322 325 327 326 327 329 328 328 334 345 348 342 333 326 324 326 329 331 332 334 334 333 333 332 331 331 331 330
215 208 204 200 196 193 190 187 185 183 182 182 182 182 182 182 183 183 184 184 183 180 180 182 182 179 176 173 171 169 168 168 169 169 170 172 174 177 180 184 186 190 195 201 210 223 243 275 300 312 315 316 317 318 318 318 320 322 324 325 325 327 328 326 325 332 345 348 338 327 323 324 328 330 331 333 335 335 334 334 333 333 333 333 332
201 197 193 190 188 186 184 182 181 181 181 180 181 182 182 183 183 183 183 181 180 180 181 181 179 176 174 171 168 167 168 169 169 170 172 174 176 178 180 184 188 193 200 208 218 235 260 287 305 313 315 317 318 318 318 320 320 321 323 324 324 326 327 325 325 334 346 344 332 323 322 326 331 332 331 333 336 336 336 335 334 334 334 334 334
186 184 183 181 180 180 179 179 179 179 180 181 182 182 182 182 182 182 181 181 180 180 179 177 174 172 170 169 168 169 169 170 171 173 174 175 177 179 181 185 191 198 206 216 229 249 273 291 304 311 313 316 318 318 319 319 319 320 322 324 323 325 327 326 327 337 345 339 327 321 323 329 333 333 333 335 337 338 338 338 337 336 336 336 336
176 176 176 175 175 175 175 176 177 177 179 181 181 181 180 179 179 179 180 180 178 176 173 172 170 169 168 169 170 170 170 172 174 175 176 177 178 180 184 190 196 204 213 225 238 256 275 290 301 306 310 314 317 317 318 318 318 319 321 321 322 326 328 326 327 337 343 335 324 321 326 332 335 334 334 337 340 340 340 340 339 339 339 338 338